logo tempoitalia

Diretta Meteo St Peterburg, Russiamercoledì 15 luglio ore 08:30

Mappa
Sereno 17 °C Sereno 24 Ore: T.min 10 T.max 19
Ponente Nord/Nord-Est Km/h 14.4 Punto di rugiada: 9 °C Umidità: 59% Visibilità: 10 Km
Il sole sorge alle: 04:01 Il sole tramonta alle: 22:08
15 Luglio 2020 08:30 tempo osservato: Sereno Sereno 17 59 1014 vento: Nord N/NE 14.4
15 Luglio 2020 08:00 tempo osservato: Sereno Sereno 16 67 1014 vento: Nord N/NO 10.8
15 Luglio 2020 07:00 tempo osservato: Sereno Sereno 13 81 1014 vento: Nord N 7.2
15 Luglio 2020 06:30 tempo osservato: Sereno Sereno 12 87 1014 vento: Nord N 7.2
15 Luglio 2020 06:00 tempo osservato: Sereno Sereno 11 87 1014 vento: Nord N 7.2
15 Luglio 2020 05:30 tempo osservato: Sereno Sereno 11 81 1014 vento: Nord N 3.6
15 Luglio 2020 04:30 tempo osservato: Nebbia Foschia Nebbia Foschia 10 87 1014 vento: Nord N 7.2
15 Luglio 2020 04:00 tempo osservato: Nebbia Foschia Nebbia Foschia 10 87 1014 vento: Nord N 7.2
15 Luglio 2020 03:30 tempo osservato: Nebbia Foschia Nebbia Foschia 10 87 1014 vento: Nord N 7.2
15 Luglio 2020 02:30 tempo osservato: Sereno Sereno 10 87 1014 vento: Nord N 7.2
15 Luglio 2020 02:00 tempo osservato: Sereno Sereno 10 87 1014 vento: Nord N 7.2
15 Luglio 2020 01:30 tempo osservato: Sereno Sereno 11 81 1014 vento: Nord N 7.2
15 Luglio 2020 00:30 tempo osservato: Sereno Sereno 12 81 1015 vento: Nord N 7.2
15 Luglio 2020 00:00 tempo osservato: Sereno Sereno 13 76 1015 vento: Nord N 7.2
14 Luglio 2020 23:30 tempo osservato: Sereno Sereno 13 76 1015 vento: Nord N 7.2
14 Luglio 2020 23:00 tempo osservato: Sereno Sereno 15 67 1015 vento: Nord O 10.8
14 Luglio 2020 22:00 tempo osservato: Sereno Sereno 15 72 1014 vento: Nord O 14.4
14 Luglio 2020 21:30 tempo osservato: Sereno Sereno 16 67 1014 vento: Nord O 14.4
14 Luglio 2020 21:00 tempo osservato: Sereno Sereno 16 63 1015 vento: Nord O 18
14 Luglio 2020 20:30 tempo osservato: Sereno Sereno 16 63 1015 vento: Nord O/NO 21.6
14 Luglio 2020 20:00 tempo osservato: Sereno Sereno 17 59 1015 vento: Nord O/NO 21.6
14 Luglio 2020 19:00 tempo osservato: Sereno Sereno 18 51 1015 vento: Nord NO 21.6
14 Luglio 2020 18:30 tempo osservato: Sereno Sereno 18 55 1014 vento: Nord NO 21.6
14 Luglio 2020 18:00 tempo osservato: Sereno Sereno 18 45 1014 vento: Nord NO 21.6
14 Luglio 2020 17:30 tempo osservato: Sereno Sereno 19 42 1014 vento: Nord NO 25.2
14 Luglio 2020 17:00 tempo osservato: Sereno Sereno 19 39 1014 vento: Nord NO 18
14 Luglio 2020 16:30 tempo osservato: Sereno Sereno 19 48 1014 vento: Nord O/NO 21.6
14 Luglio 2020 16:00 tempo osservato: Poco Nuvoloso Poco Nuvoloso 19 52 1014 vento: Nord N/NO 21.6
14 Luglio 2020 15:30 tempo osservato: Poco Nuvoloso Poco Nuvoloso 19 52 1014 vento: Nord NO 25.2
14 Luglio 2020 14:30 tempo osservato: Poco Nuvoloso Poco Nuvoloso 19 52 1015 vento: Nord NO 25.2
14 Luglio 2020 14:00 tempo osservato: Poco Nuvoloso Poco Nuvoloso 19 52 1014 vento: Nord O/NO 25.2
14 Luglio 2020 13:30 tempo osservato: Poco Nuvoloso Poco Nuvoloso 18 59 1014 vento: Nord NO 21.6
14 Luglio 2020 13:00 tempo osservato: Molto Nuvoloso Molto Nuvoloso 17 63 1014 vento: Nord NO 21.6
14 Luglio 2020 12:30 tempo osservato: Molto Nuvoloso Molto Nuvoloso 18 63 1014 vento: Nord O/NO 18
14 Luglio 2020 12:00 tempo osservato: Pioggia Pioggia 16 67 1014 vento: Nord O 14.4
14 Luglio 2020 11:30 tempo osservato: Molto Nuvoloso Molto Nuvoloso 17 67 1014 vento: Nord NO 18
14 Luglio 2020 11:00 tempo osservato: Molto Nuvoloso Molto Nuvoloso 18 59 1014 vento: Nord O/NO 14.4
14 Luglio 2020 10:30 tempo osservato: Molto Nuvoloso Molto Nuvoloso 17 63 1014 vento: Nord O/NO 14.4
14 Luglio 2020 10:00 tempo osservato: Molto Nuvoloso Molto Nuvoloso 17 63 1014 vento: Nord O 14.4